Tracking 30995 objects as of 6-Jul-2025
HD Live streaming from Space Station
objects crossing your sky now

CZ-3A R/B

Track CZ-3A R/B now!


NORAD ID: 33464
Int'l Code: 2008-066B
Perigee: 393.0 km
Apogee: 34,774.8 km
Inclination: 25.3 °
Period: 615.0 minutes
Semi major axis: 23954 km
RCS: 14.7347 m2 (large)
Launch date: December 23, 2008
Source: People's Republic of China (PRC)
Launch site: Xichang Space Center, China (XSC)

Note: This is a ROCKET BODY
Your satellite tracking list
Your tracking list is empty




NASA's NSSDC Master Catalog

Two Line Element Set (TLE):
1 33464U 08066B   25186.54424321  .00000328  00000-0  11989-2 0  9990
2 33464  25.2856 354.0460 7176352  87.2855 345.5421  2.34159484140085
Source of the keplerian elements: AFSPC